Lapse_Rate
8.2 8.2 7.9 7.9 7.8 7.8 7.8 7.7 7.4 7.2 7.2 7.1 7.1 7.2 7.5 7.6 7.5 7.7 7.8 7.9 7.8 7.8 7.6 7.5 7.3 7.1 6.7 6.6 6.6 6.7 6.7 6.4
8.5 8.1 8.0 8.3 8.0 7.8 7.8 7.8 7.6 7.2 7.2 7.1 7.0 7.0 7.3 7.6 7.5 7.5 7.6 7.8 7.9 7.8 7.7 7.6 7.4 7.2 6.9 6.7 6.3 5.9 6.1 6.6
8.3 8.1 8.1 8.1 8.1 7.9 7.8 7.9 7.7 7.3 7.1 7.0 6.8 6.7 7.1 7.5 7.5 7.4 7.5 7.7 7.8 7.8 7.8 7.7 7.5 7.3 7.1 6.8 6.3 5.9 5.8 7.2
8.1 8.2 8.2 8.0 8.0 7.9 7.8 7.9 8.0 7.6 7.2 7.2 7.1 6.7 6.8 7.5 7.6 7.4 7.4 7.5 7.7 7.8 7.8 7.7 7.6 7.4 7.3 7.2 6.8 6.8 7.0 7.1
7.8 7.9 8.1 8.1 8.1 8.0 7.7 8.0 8.0 7.8 7.4 7.3 7.1 7.1 6.6 7.0 7.5 7.5 7.4 7.6 7.7 8.0 8.0 7.9 7.7 7.6 7.4 7.3 7.2 6.9 7.4 7.1
7.1 7.8 7.7 8.0 8.0 8.1 7.6 7.8 7.9 7.9 7.7 7.4 7.1 7.2 6.7 6.9 7.5 7.5 7.6 7.6 7.7 8.1 8.0 7.8 7.8 7.7 7.6 7.5 7.2 7.3 7.5 7.2
6.9 6.8 7.7 7.6 7.9 8.0 7.9 7.6 7.8 7.9 7.9 7.5 7.0 7.3 7.0 7.0 7.4 7.6 7.7 7.6 7.7 7.9 8.0 7.9 7.7 7.8 7.8 7.7 7.4 7.4 7.8 7.3
7.4 6.7 7.0 7.5 7.8 7.9 8.0 7.6 7.7 7.7 7.8 7.7 6.9 7.2 7.0 7.0 7.4 7.7 7.8 7.6 7.6 7.7 8.0 8.0 7.8 7.8 7.8 7.7 7.5 7.5 7.6 7.4
7.5 6.8 6.5 7.3 7.7 7.8 7.8 7.6 7.7 7.7 7.7 7.8 6.8 7.0 7.2 7.1 7.5 7.7 7.8 7.6 7.6 7.6 7.7 7.8 7.7 7.7 7.7 7.7 7.6 7.5 7.5 7.5
7.0 7.5 6.5 6.5 7.5 7.4 7.5 7.4 7.7 7.7 7.7 7.7 7.0 6.8 7.3 7.2 7.5 7.7 7.5 7.7 7.6 7.5 7.8 7.6 7.7 7.7 7.6 7.7 7.7 7.5 7.5 7.5
6.8 7.3 7.2 6.2 7.0 7.1 7.3 7.4 7.6 7.8 7.7 7.7 7.4 6.7 7.2 7.2 7.6 7.4 7.5 8.0 7.6 7.4 7.7 7.6 7.8 7.8 7.6 7.4 7.6 7.6 7.5 7.5
7.3 7.3 7.5 6.6 6.4 7.0 7.2 7.3 7.3 7.9 7.9 7.8 7.6 7.1 7.1 7.1 7.7 7.2 7.5 7.7 7.5 7.1 7.4 7.5 7.5 7.5 7.7 7.5 7.3 7.3 7.5 7.3
7.2 6.9 7.6 7.1 6.5 6.8 7.3 7.0 7.0 7.0 7.4 7.7 7.7 7.3 7.1 7.1 7.5 7.4 7.8 7.4 7.4 7.2 7.0 7.4 7.3 7.2 7.0 7.1 7.2 7.2 7.3 7.2
7.6 7.2 7.0 7.3 6.7 6.6 7.1 7.2 7.1 7.2 7.4 7.7 8.0 7.7 7.3 7.3 7.5 7.5 7.7 7.8 7.4 7.4 7.2 7.3 7.4 7.3 7.2 7.2 7.0 7.0 7.2 7.1
6.5 7.4 6.3 7.1 7.3 6.9 6.8 7.3 7.1 7.1 7.3 7.6 8.0 8.0 7.6 7.6 7.4 7.6 7.7 7.7 7.2 7.5 7.5 7.4 7.3 7.5 7.0 7.3 7.1 7.0 7.4 7.2
7.1 6.6 7.1 7.6 6.6 6.6 6.6 6.7 7.0 7.0 7.0 6.8 7.7 8.0 7.8 7.7 7.3 7.3 7.7 7.6 7.4 7.3 7.2 7.4 7.1 6.9 7.1 7.1 6.9 7.0 7.2 7.0
7.9 6.6 6.8 7.2 6.7 6.1 6.5 6.7 6.6 6.2 6.3 6.7 6.8 7.8 7.7 7.6 7.5 6.9 6.8 7.1 7.5 7.3 7.2 7.2 7.2 7.3 6.9 7.2 7.2 6.9 7.0 7.1
8.1 7.5 6.0 6.2 6.1 6.0 6.0 6.5 6.7 6.5 6.3 6.4 6.1 6.8 7.3 7.6 7.6 7.5 7.2 7.5 7.2 7.2 7.1 6.9 7.0 7.1 7.1 6.9 6.7 6.6 6.6 7.0
7.1 7.0 6.6 6.1 6.7 6.0 6.2 6.1 6.9 6.8 6.7 6.7 6.7 5.9 6.8 7.3 7.3 7.4 7.1 7.2 7.4 7.5 7.5 7.2 7.1 6.9 7.0 7.1 7.0 6.5 6.6 6.2
7.0 7.3 7.0 6.1 5.8 6.1 6.0 6.8 6.4 6.6 6.8 6.5 6.7 7.0 6.4 7.0 7.2 7.2 7.6 7.4 7.4 7.5 7.4 7.5 7.2 7.0 7.0 6.6 6.6 6.5 6.2 6.0
Wind_Speed
12 15 16 19 22 24 25 23 23 24 26 25 25 23 22 23 22 20 21 22 22 20 18 17 15 11 12 8 5 8 8 20
14 12 15 16 17 21 24 24 24 24 25 26 25 26 24 23 23 21 21 22 21 21 19 17 15 11 8 5 7 8 15 23
10 11 11 13 16 17 19 22 23 23 23 26 25 20 21 21 20 22 22 21 21 21 20 18 15 11 4 5 9 13 23 20
8 9 12 12 12 16 17 18 19 21 22 23 22 20 21 21 20 24 23 21 21 22 21 19 16 9 5 7 8 14 19 19
15 12 10 12 10 10 12 14 16 19 23 24 22 19 20 19 17 18 17 19 15 17 16 14 13 13 11 8 9 6 16 19
20 18 15 15 10 10 11 10 12 11 20 26 18 10 14 14 14 17 17 16 15 15 13 15 15 17 15 13 11 9 18 17
22 21 19 16 14 12 12 12 11 14 19 26 22 12 13 13 14 18 17 19 17 14 14 13 12 13 16 12 9 9 21 18
12 21 20 17 16 14 12 12 14 13 16 22 25 18 12 12 12 12 15 20 20 17 13 9 7 10 10 9 9 5 19 19
13 21 21 20 20 13 12 12 13 12 13 25 24 21 18 13 12 12 14 22 21 16 15 13 5 7 7 8 10 7 10 18
16 13 21 21 18 15 12 11 13 13 12 19 25 24 24 13 12 12 18 20 17 10 10 7 7 5 5 5 4 9 9 18
19 13 22 22 18 15 15 15 14 14 13 13 24 23 25 13 13 11 19 12 10 11 9 9 8 6 6 5 5 5 9 11
14 12 9 22 15 14 13 12 13 14 14 15 21 19 25 14 13 13 15 13 11 12 10 9 8 8 8 6 5 5 8 6
19 15 12 16 14 13 12 15 12 12 13 20 22 18 20 18 13 13 14 14 15 15 8 12 8 8 5 4 3 5 7 5
14 22 16 12 15 14 12 14 14 15 15 17 21 22 20 19 17 16 17 13 15 13 13 9 7 9 8 7 4 1 3 5
25 22 21 13 18 14 15 13 15 15 14 15 17 22 22 20 18 17 17 15 14 15 14 17 12 10 9 5 4 4 4 3
27 25 22 12 15 18 21 19 16 14 12 13 15 22 23 21 21 19 19 14 16 15 13 13 12 13 6 6 3 6 4 3
22 22 21 17 21 18 18 17 14 14 11 15 18 19 22 25 22 18 18 15 16 18 16 15 10 13 11 11 4 3 6 4
21 23 20 20 26 10 22 23 19 17 14 14 15 16 16 23 21 21 19 18 17 16 18 18 15 13 12 11 8 5 4 4
22 22 20 22 23 6 17 25 23 22 20 15 17 16 14 19 22 21 16 20 19 18 17 17 15 14 14 11 8 6 3 3
25 23 21 19 19 15 13 24 16 16 21 17 14 17 18 22 22 22 22 22 19 19 14 15 17 14 18 15 11 11 9 10
Wind_Direction
137 156 166 167 171 169 167 170 167 164 159 158 154 151 151 148 148 146 140 135 132 132 135 139 149 171 165 165 217 241 227 120
137 153 172 178 180 174 170 171 169 166 162 156 154 151 153 151 151 148 143 139 136 137 139 141 151 164 182 207 254 265 201 138
138 155 167 186 182 179 175 172 169 165 162 154 151 158 159 155 161 149 143 143 142 141 140 143 150 153 215 272 299 304 98 109
142 176 170 177 184 169 182 179 177 178 174 165 166 167 169 170 150 150 146 147 146 144 146 153 149 156 200 267 292 292 99 112
175 171 181 190 174 167 179 181 183 187 182 171 173 168 172 171 149 147 143 146 152 145 147 162 184 172 180 217 246 243 112 119
181 177 188 189 177 178 181 181 184 186 185 175 174 170 172 171 159 158 156 166 161 162 169 181 197 177 174 209 226 212 109 119
181 176 185 185 190 182 183 183 186 185 181 178 178 175 173 169 165 165 164 172 168 169 174 185 197 185 174 217 166 237 118 128
189 183 179 181 187 185 186 181 181 190 180 180 182 179 173 174 168 168 166 175 172 174 174 190 194 180 166 190 183 208 111 130
248 185 182 182 183 183 191 186 180 192 185 179 181 183 174 172 175 169 168 174 171 177 174 192 164 167 164 159 183 143 137 137
251 205 185 180 182 178 198 196 184 196 182 179 183 182 175 170 175 170 167 171 170 183 180 186 163 165 155 165 162 153 158 137
247 251 182 178 183 181 188 212 188 191 182 178 186 183 176 171 179 175 165 169 170 188 181 177 166 166 158 159 167 161 147 160
253 238 208 173 176 186 187 207 203 190 184 180 182 185 178 178 176 179 170 171 173 186 176 171 174 165 168 162 176 165 157 172
278 261 218 178 174 187 186 200 210 196 184 182 180 184 182 182 178 177 170 176 182 181 166 169 180 171 142 138 168 170 160 167
269 263 241 187 190 187 196 195 204 202 188 183 181 182 183 184 177 179 175 176 176 181 170 174 182 178 169 148 150 195 217 179
337 285 259 214 189 192 197 190 202 202 196 186 181 182 184 183 183 180 179 178 179 180 180 176 180 181 171 154 137 190 141 208
340 334 312 266 202 195 197 212 199 207 196 196 180 183 183 185 188 180 180 178 180 179 184 186 175 176 181 190 170 143 170 157
341 338 330 317 294 197 190 201 204 196 203 194 190 185 188 188 187 182 178 184 183 180 179 181 186 182 183 192 201 142 173 150
355 348 341 335 318 234 197 194 197 205 199 194 195 192 188 188 190 189 178 184 186 182 182 180 182 187 191 194 192 181 175 140
357 355 354 345 333 327 274 191 194 199 200 198 192 204 195 194 192 187 181 185 184 184 184 185 186 186 183 192 185 196 212 156
358 353 359 0 350 350 345 241 197 198 204 199 200 195 203 192 192 188 186 185 183 183 185 185 185 187 187 191 189 198 203 206